Location: Unspecified
(43.8044°N, 11.0278°E)
Time: 02:06:04
(UTC+02:00)

CZ-3 Stage 3 - Visible Passes

Search period start: 08 July 2015 00:00
Search period end: 18 July 2015 00:00
Orbit: 428 x 34798 km, 31.0° (Epoch: 05 July)

Date Brightness Start Highest point End Pass type
(mag) Time Alt. Az. Time Alt. Az. Time Alt. Az.
08 Jul 6.9 01:50:20 10° ESE 01:56:48 12° E 10:19:25 10° ESE visible
10 Jul 6.5 05:03:04 10° SSW 05:33:59 58° SE 14:21:12 10° SSE visible
11 Jul 6.9 01:42:07 10° ESE 01:50:40 13° E 10:14:42 10° ESE visible
13 Jul 6.5 04:57:35 10° SW 05:28:21 59° SE 14:15:26 10° SSE visible
14 Jul 6.9 01:34:37 10° ESE 01:44:32 14° E 10:09:55 10° ESE visible
16 Jul 6.5 04:52:06 10° SW 05:22:45 60° SE 14:09:36 10° SSE visible
17 Jul 6.8 01:27:33 10° SE 01:38:24 15° ESE 10:05:03 10° ESE visible
